,,Stat6,,Stat2,,Stat8,,Stat9,,Stat10,,Wind1,,Wind1,
time,status,PA1M_AVG,status,PR1M_SUM,status,RH1M_AVG,status,SR1M_AVG,status,TA1M_AVG,status,W1dAve1m,status,W1sAve1m,
2003-10-22, 00:00:00,VALID,921.029,VALID,0,VALID,98.969,VALID,0.0339617,VALID,18.6138,VALID,132,VALID,1.52483,
2003-10-22, 00:01:00,VALID,921.022,VALID,0,VALID,98.9016,VALID,0,VALID,18.6239,VALID,136,VALID,1.19514,
2003-10-22, 00:02:00,VALID,921.023,VALID,0,VALID,98.838,VALID,0.0169808,VALID,18.6205,VALID,136,VALID,0.984189,
2003-10-22, 00:03:00,VALID,921.017,VALID,0,VALID,98.7935,VALID,0.0169808,VALID,18.6234,VALID,138,VALID,1.19497,
2003-10-22, 00:04:00,VALID,921.006,VALID,0,VALID,98.6892,VALID,0,VALID,18.6172,VALID,120,VALID,1.16797,
2003-10-22, 00:05:00,VALID,920.992,VALID,0,VALID,98.6358,VALID,-0.0169808,VALID,18.6135,VALID,135,VALID,1.46819,
2003-10-22, 00:06:00,VALID,920.992,VALID,0,VALID,98.6053,VALID,0,VALID,18.6135,VALID,140,VALID,1.4349,
2003-10-22, 00:07:00,VALID,920.984,VALID,0,VALID,98.6015,VALID,0,VALID,18.6101,VALID,127,VALID,1.32205,
2003-10-22, 00:08:01,VALID,920.975,VALID,0,VALID,98.5303,VALID,0.0169808,VALID,18.6068,VALID,134,VALID,1.84517,
2003-10-22, 00:09:01,VALID,920.964,VALID,0,VALID,98.5354,VALID,0,VALID,18.6172,VALID,132,VALID,1.39707,
2003-10-22, 00:10:00,VALID,920.942,VALID,0,VALID,98.5811,VALID,-0.0169808,VALID,18.6175,VALID,134,VALID,1.87585,
2003-10-22, 00:11:00,VALID,920.937,VALID,0,VALID,98.6244,VALID,-0.0339617,VALID,18.6108,VALID,137,VALID,1.92147,
2003-10-22, 00:12:00,VALID,920.92,VALID,0,VALID,98.6714,VALID,0,VALID,18.6048,VALID,137,VALID,2.25444,
2003-10-22, 00:13:00,VALID,920.896,VALID,0,VALID,98.7312,VALID,-0.0169808,VALID,18.5949,VALID,120,VALID,1.78506,
2003-10-22, 00:14:00,VALID,920.872,VALID,0,VALID,98.8291,VALID,0,VALID,18.5854,VALID,119,VALID,1.81777,
2003-10-22, 00:15:00,VALID,920.855,VALID,0,VALID,98.9092,VALID,0,VALID,18.5656,VALID,124,VALID,1.73251,
2003-10-22, 00:16:01,VALID,920.833,VALID,0,VALID,99.0109,VALID,-0.0339617,VALID,18.5534,VALID,120,VALID,1.8869,
2003-10-22, 00:17:00,VALID,920.823,VALID,0,VALID,99.1368,VALID,0,VALID,18.5434,VALID,125,VALID,1.77795,
2003-10-22, 00:18:01,VALID,920.818,VALID,0,VALID,99.222,VALID,-0.0169808,VALID,18.5107,VALID,121,VALID,1.62918,
2003-10-22, 00:19:00,VALID,920.805,VALID,0,VALID,99.2678,VALID,0.0169808,VALID,18.501,VALID,129,VALID,1.77251,
2003-10-22, 00:20:00,VALID,920.793,VALID,0,VALID,99.3301,VALID,0,VALID,18.4883,VALID,133,VALID,1.6084,
2003-10-22, 00:21:00,VALID,920.791,VALID,0,VALID,99.339,VALID,0,VALID,18.4883,VALID,131,VALID,1.56722,
2003-10-22, 00:22:01,VALID,920.773,VALID,0,VALID,99.3454,VALID,0,VALID,18.4812,VALID,133,VALID,1.63728,
2003-10-22, 00:23:00,VALID,920.751,VALID,0,VALID,99.3072,VALID,0,VALID,18.4915,VALID,126,VALID,1.69389,
2003-10-22, 00:24:00,VALID,920.738,VALID,0,VALID,99.2945,VALID,0,VALID,18.5045,VALID,119,VALID,2.18318,
2003-10-22, 00:25:00,VALID,920.724,VALID,0,VALID,99.2195,VALID,0,VALID,18.5169,VALID,125,VALID,2.00373,
2003-10-22, 00:26:00,VALID,920.705,VALID,0,VALID,99.1928,VALID,0,VALID,18.5365,VALID,124,VALID,1.63849,
2003-10-22, 00:27:00,VALID,920.697,VALID,0,VALID,99.1178,VALID,-0.0169808,VALID,18.5462,VALID,131,VALID,1.7761,
2003-10-22, 00:28:01,VALID,920.687,VALID,0,VALID,98.9588,VALID,0,VALID,18.536,VALID,141,VALID,1.39306,
2003-10-22, 00:29:01,VALID,920.673,VALID,0,VALID,98.852,VALID,0.0169808,VALID,18.5524,VALID,135,VALID,1.79916,
2003-10-22, 00:30:00,VALID,920.672,VALID,0,VALID,98.7299,VALID,0,VALID,18.5494,VALID,139,VALID,1.74873,
2003-10-22, 00:31:00,VALID,920.646,VALID,0,VALID,98.6371,VALID,0,VALID,18.5688,VALID,136,VALID,1.6468,
2003-10-22, 00:32:01,VALID,920.652,VALID,0,VALID,98.5494,VALID,0.0169808,VALID,18.5752,VALID,137,VALID,1.41988,
2003-10-22, 00:33:01,VALID,920.623,VALID,0,VALID,98.4514,VALID,0.0169808,VALID,18.5812,VALID,138,VALID,1.50614,
2003-10-22, 00:34:00,VALID,920.607,VALID,0,VALID,98.3561,VALID,0,VALID,18.5849,VALID,131,VALID,1.19295,
2003-10-22, 00:35:01,VALID,920.596,VALID,0,VALID,98.2238,VALID,-0.0169808,VALID,18.5812,VALID,141,VALID,1.39565,
2003-10-22, 00:36:01,VALID,920.567,VALID,0,VALID,98.0318,VALID,0,VALID,18.5914,VALID,136,VALID,1.39863,
2003-10-22, 00:37:00,VALID,920.561,VALID,0,VALID,97.9046,VALID,0,VALID,18.5914,VALID,134,VALID,1.45585,
2003-10-22, 00:38:00,VALID,920.532,VALID,0,VALID,97.6821,VALID,0.0339617,VALID,18.5976,VALID,123,VALID,1.43132,
2003-10-22, 00:39:00,VALID,920.524,VALID,0,VALID,97.5219,VALID,0.0169808,VALID,18.5912,VALID,125,VALID,1.356,
2003-10-22, 00:40:00,VALID,920.501,VALID,0,VALID,97.4837,VALID,0,VALID,18.614,VALID,108,VALID,1.18864,
2003-10-22, 00:41:01,VALID,920.478,VALID,0,VALID,97.5982,VALID,0,VALID,18.5909,VALID,81,VALID,0.974564,
2003-10-22, 00:42:00,VALID,920.451,VALID,0,VALID,97.8411,VALID,0,VALID,18.5983,VALID,56,VALID,0.981468,
2003-10-22, 00:43:01,VALID,920.446,VALID,0,VALID,97.9784,VALID,0,VALID,18.578,VALID,61,VALID,1.03268,
2003-10-22, 00:44:00,VALID,920.429,VALID,0,VALID,98.0598,VALID,0,VALID,18.549,VALID,75,VALID,0.932664,
2003-10-22, 00:45:00,VALID,920.417,VALID,0,VALID,98.1196,VALID,0,VALID,18.5268,VALID,68,VALID,0.853365,
2003-10-22, 00:46:01,VALID,920.402,VALID,0,VALID,98.2187,VALID,0,VALID,18.5139,VALID,67,VALID,0.788154,
2003-10-22, 00:47:00,VALID,920.379,VALID,0,VALID,98.1844,VALID,0.0169808,VALID,18.5003,VALID,86,VALID,1.02634,
2003-10-22, 00:48:00,VALID,920.361,VALID,0,VALID,98.1501,VALID,0,VALID,18.4814,VALID,88,VALID,1.12258,
2003-10-22, 00:49:00,VALID,920.345,VALID,0,VALID,98.1742,VALID,0.0169808,VALID,18.462,VALID,84,VALID,1.12024,
2003-10-22, 00:50:00,VALID,920.329,VALID,0,VALID,98.1857,VALID,0.0169808,VALID,18.4583,VALID,97,VALID,0.943979,
2003-10-22, 00:51:01,VALID,920.304,VALID,0,VALID,98.1653,VALID,0.0339617,VALID,18.4526,VALID,66,VALID,1.2302,
2003-10-22, 00:52:00,VALID,920.284,VALID,0,VALID,98.2836,VALID,0.0169808,VALID,18.456,VALID,67,VALID,0.800967,
2003-10-22, 00:53:01,VALID,920.266,VALID,0,VALID,98.2111,VALID,0,VALID,18.436,VALID,83,VALID,1.27553,
2003-10-22, 00:54:01,VALID,920.239,VALID,0,VALID,98.1691,VALID,0,VALID,18.4235,VALID,86,VALID,1.17318,
2003-10-22, 00:55:01,VALID,920.218,VALID,0,VALID,98.0865,VALID,0,VALID,18.4134,VALID,101,VALID,1.40371,
2003-10-22, 00:56:01,VALID,920.201,VALID,0,VALID,97.9619,VALID,0.0339617,VALID,18.4267,VALID,109,VALID,1.39542,
2003-10-22, 00:57:00,VALID,920.191,VALID,0,VALID,97.8767,VALID,-0.0169808,VALID,18.4332,VALID,122,VALID,1.17746,
2003-10-22, 00:58:01,VALID,920.166,VALID,0,VALID,97.7775,VALID,0,VALID,18.4526,VALID,114,VALID,1.29211,
2003-10-22, 00:59:00,VALID,920.155,VALID,0,VALID,97.6821,VALID,0.0169808,VALID,18.4623,VALID,125,VALID,1.38839,
2003-10-22, 01:00:00,VALID,920.135,VALID,0,VALID,97.6389,VALID,0.0169808,VALID,18.4655,VALID,119,VALID,1.26885,
2003-10-22, 01:01:00,VALID,920.111,VALID,0,VALID,97.5715,VALID,0.0169808,VALID,18.4618,VALID,105,VALID,1.2567,
2003-10-22, 01:02:00,VALID,920.098,VALID,0,VALID,97.5054,VALID,0,VALID,18.4816,VALID,98,VALID,0.945685,
2003-10-22, 01:03:01,VALID,920.063,VALID,0,VALID,97.4736,VALID,0.0169808,VALID,18.4752,VALID,100,VALID,0.903832,
2003-10-22, 01:04:00,VALID,920.043,VALID,0,VALID,97.4698,VALID,0,VALID,18.4789,VALID,105,VALID,0.957317,
2003-10-22, 01:05:00,VALID,920.031,VALID,0,VALID,97.5283,VALID,0,VALID,18.4657,VALID,117,VALID,0.870164,
2003-10-22, 01:06:00,VALID,920.015,VALID,0,VALID,97.5537,VALID,-0.0169808,VALID,18.4558,VALID,114,VALID,1.03292,
2003-10-22, 01:07:00,VALID,920.004,VALID,0,VALID,97.6287,VALID,0.0169808,VALID,18.4625,VALID,112,VALID,1.21019,
2003-10-22, 01:08:00,VALID,919.994,VALID,0,VALID,97.6402,VALID,0,VALID,18.4461,VALID,117,VALID,1.36101,
2003-10-22, 01:09:00,VALID,919.998,VALID,0,VALID,97.7292,VALID,0,VALID,18.4431,VALID,115,VALID,1.21151,
2003-10-22, 01:10:00,VALID,919.992,VALID,0,VALID,97.9097,VALID,0,VALID,18.4332,VALID,112,VALID,1.03906,
2003-10-22, 01:11:01,VALID,919.995,VALID,0,VALID,98.0916,VALID,0,VALID,18.43,VALID,99,VALID,0.88681,
2003-10-22, 01:12:01,VALID,919.994,VALID,0,VALID,98.1958,VALID,0,VALID,18.4171,VALID,105,VALID,1.00305,
2003-10-22, 01:13:01,VALID,919.983,VALID,0,VALID,98.2938,VALID,0,VALID,18.4177,VALID,90,VALID,0.707403,
2003-10-22, 01:14:01,VALID,919.969,VALID,0,VALID,98.3128,VALID,0,VALID,18.4173,VALID,80,VALID,1.09508,
2003-10-22, 01:15:01,VALID,919.965,VALID,0,VALID,98.3154,VALID,0,VALID,18.4108,VALID,58,VALID,0.802782,
2003-10-22, 01:16:01,VALID,919.951,VALID,0,VALID,98.3395,VALID,-0.0339617,VALID,18.4175,VALID,77,VALID,0.540153,
2003-10-22, 01:17:01,VALID,919.947,VALID,0,VALID,98.2925,VALID,0,VALID,18.4081,VALID,98,VALID,0.582403,
2003-10-22, 01:18:00,VALID,919.936,VALID,0,VALID,98.2976,VALID,0,VALID,18.3979,VALID,96,VALID,0.457667,
2003-10-22, 01:19:01,VALID,919.925,VALID,0,VALID,98.3446,VALID,-0.0679233,VALID,18.3922,VALID,88,VALID,0.342115,
2003-10-22, 01:20:01,VALID,919.903,VALID,0,VALID,98.4082,VALID,-0.101885,VALID,18.3829,VALID,85,VALID,0.243096,
2003-10-22, 01:21:01,VALID,919.899,VALID,0,VALID,98.4858,VALID,-0.101885,VALID,18.3963,VALID,44,VALID,0.392969,
2003-10-22, 01:22:00,VALID,919.891,VALID,0,VALID,98.5786,VALID,-0.101885,VALID,18.3961,VALID,36,VALID,0.360283,
2003-10-22, 01:23:00,VALID,919.888,VALID,0,VALID,98.6333,VALID,-0.0509425,VALID,18.3859,VALID,36,VALID,0.296684,
2003-10-22, 01:24:01,VALID,919.882,VALID,0,VALID,98.632,VALID,-0.101885,VALID,18.3862,VALID,37,VALID,0.384301,
2003-10-22, 01:25:01,VALID,919.87,VALID,0,VALID,98.646,VALID,-0.101885,VALID,18.3802,VALID,46,VALID,0.426669,
2003-10-22, 01:26:00,VALID,919.865,VALID,0,VALID,98.6536,VALID,-0.101885,VALID,18.3739,VALID,52,VALID,0.451219,
2003-10-22, 01:27:00,VALID,919.842,VALID,0,VALID,98.557,VALID,-0.101885,VALID,18.3539,VALID,90,VALID,0.680831,
2003-10-22, 01:28:01,VALID,919.824,VALID,0,VALID,98.571,VALID,-0.118866,VALID,18.338,VALID,116,VALID,0.788132,
2003-10-22, 01:29:00,VALID,919.824,VALID,0,VALID,98.674,VALID,-0.101885,VALID,18.3084,VALID,119,VALID,1.0974,
2003-10-22, 01:30:01,VALID,919.817,VALID,0,VALID,98.735,VALID,-0.0849042,VALID,18.3119,VALID,120,VALID,1.18324,
2003-10-22, 01:31:01,VALID,919.818,VALID,0,VALID,98.7465,VALID,-0.0849042,VALID,18.2958,VALID,119,VALID,0.941964,
2003-10-22, 01:32:01,VALID,919.807,VALID,0,VALID,98.763,VALID,-0.0849042,VALID,18.2994,VALID,91,VALID,0.522905,
2003-10-22, 01:33:01,VALID,919.775,VALID,0,VALID,98.7808,VALID,-0.101885,VALID,18.3091,VALID,86,VALID,0.60973,
2003-10-22, 01:34:01,VALID,919.775,VALID,0,VALID,98.6536,VALID,-0.0339617,VALID,18.3048,VALID,95,VALID,0.647879,
2003-10-22, 01:35:01,VALID,919.766,VALID,0,VALID,98.5926,VALID,0,VALID,18.3077,VALID,94,VALID,0.560454,
2003-10-22, 01:36:01,VALID,919.765,VALID,0,VALID,98.4807,VALID,0,VALID,18.314,VALID,89,VALID,0.640253,
2003-10-22, 01:37:00,VALID,919.761,VALID,0,VALID,98.379,VALID,0,VALID,18.317,VALID,65,VALID,0.567264,
2003-10-22, 01:38:01,VALID,919.773,VALID,0,VALID,98.3014,VALID,0.0169808,VALID,18.3403,VALID,81,VALID,0.337984,
2003-10-22, 01:39:01,VALID,919.773,VALID,0,VALID,98.2442,VALID,0,VALID,18.3299,VALID,79,VALID,0.102604,
2003-10-22, 01:40:01,VALID,919.767,VALID,0,VALID,98.2276,VALID,0.0169808,VALID,18.343,VALID,111,VALID,0.439063,
2003-10-22, 01:41:01,VALID,919.76,VALID,0,VALID,98.2251,VALID,0,VALID,18.3398,VALID,127,VALID,0.544207,
2003-10-22, 01:42:01,VALID,919.741,VALID,0,VALID,98.1793,VALID,-0.0169808,VALID,18.3366,VALID,133,VALID,0.841273,
2003-10-22, 01:43:01,VALID,919.729,VALID,0,VALID,98.145,VALID,-0.0169808,VALID,18.3366,VALID,123,VALID,1.03802,
2003-10-22, 01:44:01,VALID,919.708,VALID,0,VALID,98.0941,VALID,0.0169808,VALID,18.3234,VALID,97,VALID,0.427344,
2003-10-22, 01:45:01,VALID,919.678,VALID,0,VALID,98.1234,VALID,0,VALID,18.3301,VALID,98,VALID,0.339658,
2003-10-22, 01:46:01,VALID,919.659,VALID,0,VALID,98.192,VALID,0.0169808,VALID,18.3336,VALID,96,VALID,0.334121,
2003-10-22, 01:47:01,VALID,919.633,VALID,0,VALID,98.2493,VALID,0,VALID,18.3299,VALID,93,VALID,0.321007,
2003-10-22, 01:48:01,VALID,919.618,VALID,0,VALID,98.309,VALID,0.0169808,VALID,18.3202,VALID,88,VALID,0.540923,
2003-10-22, 01:49:01,VALID,919.605,VALID,0,VALID,98.295,VALID,0,VALID,18.3172,VALID,94,VALID,0.596768,
2003-10-22, 01:50:01,VALID,919.578,VALID,0,VALID,98.3281,VALID,-0.0169808,VALID,18.2981,VALID,101,VALID,0.666788,
2003-10-22, 01:51:01,VALID,919.57,VALID,0,VALID,98.4286,VALID,0,VALID,18.2879,VALID,113,VALID,0.697173,
2003-10-22, 01:52:01,VALID,919.557,VALID,0,VALID,98.4832,VALID,0,VALID,18.2812,VALID,108,VALID,0.679155,
2003-10-22, 01:53:01,VALID,919.554,VALID,0,VALID,98.5786,VALID,-0.0169808,VALID,18.2854,VALID,107,VALID,0.762649,
2003-10-22, 01:54:01,VALID,919.544,VALID,0,VALID,98.6867,VALID,0,VALID,18.2718,VALID,105,VALID,0.858103,
2003-10-22, 01:55:01,VALID,919.53,VALID,0,VALID,98.7706,VALID,0.0169808,VALID,18.2688,VALID,97,VALID,0.830729,
2003-10-22, 01:56:01,VALID,919.53,VALID,0,VALID,98.791,VALID,0,VALID,18.2623,VALID,96,VALID,0.866097,
2003-10-22, 01:57:01,VALID,919.505,VALID,0,VALID,98.8049,VALID,0.0169808,VALID,18.243,VALID,98,VALID,0.917878,
2003-10-22, 01:58:01,VALID,919.491,VALID,0,VALID,98.7643,VALID,-0.0169808,VALID,18.2501,VALID,101,VALID,0.941761,
2003-10-22, 01:59:01,VALID,919.476,VALID,0,VALID,98.6956,VALID,0,VALID,18.2591,VALID,119,VALID,1.16815,
2003-10-22, 02:00:01,VALID,919.467,VALID,0,VALID,98.5328,VALID,0.0339617,VALID,18.2623,VALID,118,VALID,1.35377,
2003-10-22, 02:01:01,VALID,919.446,VALID,0,VALID,98.3319,VALID,0,VALID,18.2755,VALID,120,VALID,1.20614,
2003-10-22, 02:02:01,VALID,919.441,VALID,0,VALID,98.2404,VALID,0,VALID,18.3077,VALID,127,VALID,1.1891,
2003-10-22, 02:03:01,VALID,919.43,VALID,0,VALID,98.1501,VALID,0,VALID,18.3142,VALID,125,VALID,1.40207,
2003-10-22, 02:04:01,VALID,919.412,VALID,0,VALID,98.1094,VALID,-0.0339617,VALID,18.314,VALID,127,VALID,1.51435,
2003-10-22, 02:05:01,VALID,919.399,VALID,0,VALID,98.103,VALID,0,VALID,18.3107,VALID,132,VALID,1.36961,
2003-10-22, 02:06:00,VALID,919.394,VALID,0,VALID,98.2073,VALID,-0.0169808,VALID,18.3306,VALID,131,VALID,1.2123,
2003-10-22, 02:07:00,VALID,919.378,VALID,0,VALID,98.2556,VALID,-0.0339617,VALID,18.3207,VALID,127,VALID,1.4478,
2003-10-22, 02:08:00,VALID,919.379,VALID,0,VALID,98.2861,VALID,0,VALID,18.3276,VALID,128,VALID,1.2952,
2003-10-22, 02:09:00,VALID,919.372,VALID,0,VALID,98.3014,VALID,0,VALID,18.3144,VALID,119,VALID,1.26472,
2003-10-22, 02:10:00,VALID,919.364,VALID,0,VALID,98.3828,VALID,-0.0169808,VALID,18.2911,VALID,125,VALID,1.29985,
2003-10-22, 02:11:00,VALID,919.352,VALID,0,VALID,98.4642,VALID,0,VALID,18.2852,VALID,124,VALID,1.32156,
2003-10-22, 02:12:00,VALID,919.339,VALID,0,VALID,98.5761,VALID,0,VALID,18.2918,VALID,126,VALID,1.49911,
2003-10-22, 02:13:00,VALID,919.32,VALID,0,VALID,98.6765,VALID,0,VALID,18.2787,VALID,126,VALID,1.52752,
2003-10-22, 02:14:00,VALID,919.303,VALID,0,VALID,98.7248,VALID,0,VALID,18.2787,VALID,128,VALID,1.24055,
2003-10-22, 02:15:00,VALID,919.288,VALID,0,VALID,98.7617,VALID,0,VALID,18.2626,VALID,125,VALID,1.54251,
2003-10-22, 02:16:00,VALID,919.291,VALID,0,VALID,98.8075,VALID,0,VALID,18.266,VALID,122,VALID,1.38777,
2003-10-22, 02:17:00,VALID,919.273,VALID,0,VALID,98.8202,VALID,0,VALID,18.2397,VALID,115,VALID,1.37653,
2003-10-22, 02:18:00,VALID,919.268,VALID,0,VALID,98.894,VALID,0,VALID,18.2303,VALID,118,VALID,1.25495,
2003-10-22, 02:19:00,VALID,919.255,VALID,0,VALID,98.9296,VALID,-0.0169808,VALID,18.2307,VALID,109,VALID,1.22057,
2003-10-22, 02:20:00,VALID,919.234,VALID,0,VALID,98.9525,VALID,-0.0339617,VALID,18.2236,VALID,106,VALID,1.14509,
2003-10-22, 02:21:00,VALID,919.231,VALID,0,VALID,98.9601,VALID,-0.0509425,VALID,18.228,VALID,95,VALID,0.972751,
2003-10-22, 02:22:00,VALID,919.206,VALID,0,VALID,98.9258,VALID,-0.0509425,VALID,18.2178,VALID,102,VALID,1.12165,
2003-10-22, 02:23:00,VALID,919.194,VALID,0,VALID,98.8952,VALID,-0.0679233,VALID,18.2074,VALID,102,VALID,1.16704,
2003-10-22, 02:24:00,VALID,919.172,VALID,0,VALID,98.8723,VALID,-0.0509425,VALID,18.2208,VALID,112,VALID,1.10063,
2003-10-22, 02:25:00,VALID,919.159,VALID,0,VALID,98.9041,VALID,0,VALID,18.2139,VALID,122,VALID,1.38319,
2003-10-22, 02:26:00,VALID,919.14,VALID,0,VALID,98.8316,VALID,-0.0169808,VALID,18.2206,VALID,121,VALID,1.22452,
2003-10-22, 02:27:00,VALID,919.132,VALID,0,VALID,98.7439,VALID,0,VALID,18.2208,VALID,124,VALID,1.35042,
2003-10-22, 02:28:00,VALID,919.107,VALID,0,VALID,98.6752,VALID,0,VALID,18.2303,VALID,134,VALID,1.31445,
2003-10-22, 02:29:00,VALID,919.1,VALID,0,VALID,98.585,VALID,0,VALID,18.24,VALID,128,VALID,1.6516,
2003-10-22, 02:30:00,VALID,919.093,VALID,0,VALID,98.4502,VALID,-0.0169808,VALID,18.2434,VALID,129,VALID,1.41292,
2003-10-22, 02:31:00,VALID,919.09,VALID,0,VALID,98.3624,VALID,0,VALID,18.2529,VALID,126,VALID,1.75242,
2003-10-22, 02:32:00,VALID,919.09,VALID,0,VALID,98.3802,VALID,0,VALID,18.2561,VALID,127,VALID,1.15556,
2003-10-22, 02:33:00,VALID,919.082,VALID,0,VALID,98.4298,VALID,0,VALID,18.2462,VALID,119,VALID,1.20913,
2003-10-22, 02:34:00,VALID,919.073,VALID,0,VALID,98.4286,VALID,0,VALID,18.237,VALID,127,VALID,1.33576,
2003-10-22, 02:35:00,VALID,919.066,VALID,0,VALID,98.4578,VALID,-0.0169808,VALID,18.227,VALID,117,VALID,1.44062,
2003-10-22, 02:36:00,VALID,919.063,VALID,0,VALID,98.5201,VALID,-0.0169808,VALID,18.2139,VALID,115,VALID,1.16621,
2003-10-22, 02:37:00,VALID,919.047,VALID,0,VALID,98.5608,VALID,-0.0169808,VALID,18.2084,VALID,114,VALID,1.23552,
2003-10-22, 02:38:00,VALID,919.014,VALID,0,VALID,98.6307,VALID,0,VALID,18.2051,VALID,119,VALID,1.40208,
2003-10-22, 02:39:00,VALID,919.009,VALID,0,VALID,98.6791,VALID,0,VALID,18.1818,VALID,108,VALID,1.20815,
2003-10-22, 02:40:00,VALID,918.991,VALID,0,VALID,98.7197,VALID,-0.0169808,VALID,18.1791,VALID,109,VALID,1.29013,
2003-10-22, 02:41:00,VALID,918.976,VALID,0,VALID,98.777,VALID,0,VALID,18.1558,VALID,103,VALID,0.915421,
2003-10-22, 02:42:00,VALID,918.953,VALID,0,VALID,98.8545,VALID,-0.0169808,VALID,18.1463,VALID,109,VALID,1.1701,
2003-10-22, 02:43:00,VALID,918.945,VALID,0,VALID,98.9944,VALID,-0.0169808,VALID,18.1565,VALID,116,VALID,1.31328,
2003-10-22, 02:44:00,VALID,918.943,VALID,0,VALID,99.0898,VALID,-0.0169808,VALID,18.1396,VALID,114,VALID,1.2571,
2003-10-22, 02:45:00,VALID,918.936,VALID,0,VALID,99.1483,VALID,0,VALID,18.1438,VALID,115,VALID,1.38965,
2003-10-22, 02:46:00,VALID,918.928,VALID,0,VALID,99.161,VALID,-0.0169808,VALID,18.1401,VALID,115,VALID,1.42496,
2003-10-22, 02:47:00,VALID,918.923,VALID,0,VALID,99.1623,VALID,-0.0339617,VALID,18.1235,VALID,116,VALID,1.10176,
2003-10-22, 02:48:00,VALID,918.918,VALID,0,VALID,99.2119,VALID,0,VALID,18.1203,VALID,110,VALID,1.07736,
2003-10-22, 02:49:00,VALID,918.912,VALID,0,VALID,99.2602,VALID,0,VALID,18.127,VALID,108,VALID,1.12445,
2003-10-22, 02:50:00,VALID,918.902,VALID,0,VALID,99.2882,VALID,0,VALID,18.114,VALID,117,VALID,1.24346,
2003-10-22, 02:51:00,VALID,918.898,VALID,0,VALID,99.3085,VALID,0.0169808,VALID,18.1237,VALID,107,VALID,1.00937,
2003-10-22, 02:52:00,VALID,918.885,VALID,0,VALID,99.292,VALID,-0.0339617,VALID,18.1177,VALID,100,VALID,0.87779,
2003-10-22, 02:53:00,VALID,918.874,VALID,0,VALID,99.3021,VALID,-0.0169808,VALID,18.1175,VALID,91,VALID,0.818229,
2003-10-22, 02:54:00,VALID,918.852,VALID,0,VALID,99.3123,VALID,0,VALID,18.1173,VALID,85,VALID,0.671875,
2003-10-22, 02:55:00,VALID,918.838,VALID,0,VALID,99.2831,VALID,0,VALID,18.1041,VALID,84,VALID,0.777604,
2003-10-22, 02:56:00,VALID,918.832,VALID,0,VALID,99.2487,VALID,0,VALID,18.124,VALID,88,VALID,0.830221,
2003-10-22, 02:57:00,VALID,918.818,VALID,0,VALID,99.2004,VALID,0,VALID,18.1205,VALID,91,VALID,0.875727,
2003-10-22, 02:58:00,VALID,918.822,VALID,0,VALID,99.1114,VALID,-0.0169808,VALID,18.1011,VALID,92,VALID,0.922061,
2003-10-22, 02:59:00,VALID,918.81,VALID,0,VALID,99.0504,VALID,0,VALID,18.1143,VALID,94,VALID,0.913872,
2003-10-22, 03:00:00,VALID,918.81,VALID,0,VALID,98.9652,VALID,-0.0169808,VALID,18.108,VALID,90,VALID,0.901278,
2003-10-22, 03:01:00,VALID,918.807,VALID,0,VALID,98.8812,VALID,0,VALID,18.1205,VALID,99,VALID,0.866667,
2003-10-22, 03:02:00,VALID,918.803,VALID,0,VALID,98.8393,VALID,-0.0509425,VALID,18.1309,VALID,103,VALID,0.598586,
2003-10-22, 03:03:00,VALID,918.802,VALID,0,VALID,98.8736,VALID,-0.0509425,VALID,18.1237,VALID,128,VALID,0.738281,
2003-10-22, 03:04:00,VALID,918.803,VALID,0,VALID,98.9067,VALID,-0.0169808,VALID,18.1502,VALID,128,VALID,0.862537,
2003-10-22, 03:05:00,VALID,918.799,VALID,0,VALID,98.8863,VALID,-0.0339617,VALID,18.1436,VALID,125,VALID,0.916797,
2003-10-22, 03:06:00,VALID,918.804,VALID,0,VALID,98.9041,VALID,0,VALID,18.1334,VALID,129,VALID,1.12695,
2003-10-22, 03:07:00,VALID,918.8,VALID,0,VALID,98.9105,VALID,-0.0169808,VALID,18.1498,VALID,128,VALID,0.995821,
2003-10-22, 03:08:00,VALID,918.816,VALID,0,VALID,98.8774,VALID,0,VALID,18.1565,VALID,124,VALID,0.942264,
2003-10-22, 03:09:00,VALID,918.81,VALID,0,VALID,98.7643,VALID,0,VALID,18.1595,VALID,128,VALID,0.927455,
2003-10-22, 03:10:00,VALID,918.79,VALID,0.2,VALID,98.707,VALID,-0.0169808,VALID,18.1463,VALID,118,VALID,0.79652,
2003-10-22, 03:11:00,VALID,918.783,VALID,0,VALID,98.5455,VALID,0,VALID,18.159,VALID,106,VALID,0.94215,
2003-10-22, 03:12:00,VALID,918.775,VALID,0,VALID,98.3942,VALID,0.0169808,VALID,18.1659,VALID,107,VALID,0.807465,
2003-10-22, 03:13:00,VALID,918.759,VALID,0,VALID,98.2861,VALID,0,VALID,18.1881,VALID,113,VALID,0.931996,
2003-10-22, 03:14:00,VALID,918.739,VALID,0,VALID,98.1704,VALID,0,VALID,18.2049,VALID,121,VALID,1.00725,
2003-10-22, 03:15:00,VALID,918.72,VALID,0,VALID,98.0433,VALID,0,VALID,18.2178,VALID,110,VALID,0.91915,
2003-10-22, 03:16:00,VALID,918.693,VALID,0,VALID,97.8881,VALID,0,VALID,18.2206,VALID,104,VALID,0.782552,
2003-10-22, 03:17:00,VALID,918.669,VALID,0,VALID,97.7444,VALID,-0.0169808,VALID,18.23,VALID,80,VALID,0.779726,
2003-10-22, 03:18:00,VALID,918.663,VALID,0,VALID,97.6147,VALID,0,VALID,18.2466,VALID,79,VALID,0.749442,
2003-10-22, 03:19:00,VALID,918.645,VALID,0,VALID,97.5384,VALID,-0.0169808,VALID,18.2598,VALID,85,VALID,0.605923,
2003-10-22, 03:20:00,VALID,918.637,VALID,0,VALID,97.5321,VALID,0,VALID,18.2656,VALID,102,VALID,0.442894,
2003-10-22, 03:21:00,VALID,918.63,VALID,0,VALID,97.6236,VALID,-0.0169808,VALID,18.2692,VALID,119,VALID,0.679874,
2003-10-22, 03:22:00,VALID,918.636,VALID,0,VALID,97.8017,VALID,0.0169808,VALID,18.263,VALID,125,VALID,0.693257,
2003-10-22, 03:23:00,VALID,918.63,VALID,0,VALID,97.9085,VALID,-0.0169808,VALID,18.2499,VALID,119,VALID,0.618253,
2003-10-22, 03:24:00,VALID,918.625,VALID,0,VALID,98.0407,VALID,0.0169808,VALID,18.227,VALID,119,VALID,0.376302,
2003-10-22, 03:25:00,VALID,918.634,VALID,0,VALID,98.1615,VALID,0.0339617,VALID,18.2234,VALID,130,VALID,0.674107,
2003-10-22, 03:26:00,VALID,918.623,VALID,0,VALID,98.2404,VALID,0,VALID,18.2238,VALID,121,VALID,0.732813,
2003-10-22, 03:27:00,VALID,918.616,VALID,0,VALID,98.1831,VALID,0,VALID,18.2137,VALID,117,VALID,0.982013,
2003-10-22, 03:28:00,VALID,918.608,VALID,0,VALID,98.1984,VALID,0.0169808,VALID,18.2201,VALID,129,VALID,0.924733,
2003-10-22, 03:29:00,VALID,918.608,VALID,0,VALID,98.0979,VALID,0.0169808,VALID,18.2171,VALID,126,VALID,1.22706,
2003-10-22, 03:30:00,VALID,918.603,VALID,0,VALID,98.0305,VALID,0,VALID,18.1975,VALID,127,VALID,1.52674,
2003-10-22, 03:31:00,VALID,918.596,VALID,0,VALID,97.9492,VALID,0,VALID,18.2012,VALID,124,VALID,1.31734,
2003-10-22, 03:32:00,VALID,918.585,VALID,0,VALID,97.9466,VALID,0.0169808,VALID,18.1984,VALID,116,VALID,1.29669,
2003-10-22, 03:33:00,VALID,918.586,VALID,0,VALID,98,VALID,-0.0169808,VALID,18.1883,VALID,116,VALID,1.22786,
2003-10-22, 03:34:00,VALID,918.581,VALID,0,VALID,98.1412,VALID,-0.0679233,VALID,18.1795,VALID,113,VALID,1.55729,
2003-10-22, 03:35:00,VALID,918.582,VALID,0,VALID,98.2823,VALID,-0.101885,VALID,18.1638,VALID,109,VALID,1.43507,
2003-10-22, 03:36:00,VALID,918.59,VALID,0,VALID,98.4235,VALID,-0.101885,VALID,18.1608,VALID,115,VALID,1.65843,
2003-10-22, 03:37:00,VALID,918.592,VALID,0,VALID,98.5214,VALID,-0.118866,VALID,18.1479,VALID,113,VALID,1.46512,
2003-10-22, 03:38:00,VALID,918.607,VALID,0,VALID,98.5748,VALID,-0.101885,VALID,18.1283,VALID,104,VALID,0.959121,
2003-10-22, 03:39:00,VALID,918.613,VALID,0,VALID,98.6371,VALID,-0.118866,VALID,18.1122,VALID,108,VALID,1.30176,